Wind_Speed
2 2 2 2 2 2 1 0 1 1 1 2 2 2 3 3 4 4 4 4 5 5 5 5 5 5 5 5 5 5 5 5 6 6 6 6 5 5 5 5 5 5 5 5 6 5 5 5 5
3 2 2 2 2 2 1 1 1 2 2 2 2 2 2 3 3 4 5 5 6 6 6 6 6 6 6 6 6 6 7 7 7 7 6 6 6 5 6 5 6 6 6 5 5 6 6 6 6
3 3 3 2 2 2 2 2 2 2 3 3 3 3 3 4 4 5 5 6 6 6 7 7 6 6 7 7 7 7 7 7 7 7 7 6 6 6 6 6 6 6 6 6 6 6 6 6 6
4 4 3 3 2 2 3 3 3 3 4 4 5 4 4 5 5 5 6 6 6 6 7 7 6 7 7 8 8 8 8 8 8 8 7 7 7 7 7 7 7 7 7 7 7 7 7 7 7
5 4 3 3 3 4 4 4 5 5 5 5 6 6 5 6 6 6 7 7 6 6 6 7 7 7 8 8 8 8 8 8 8 8 8 8 7 8 8 8 7 7 8 7 8 8 7 8 8
5 4 4 3 4 5 5 5 5 6 6 6 6 6 6 7 7 7 7 7 7 7 7 7 7 8 8 8 8 8 8 8 9 9 9 9 9 9 9 9 8 8 9 9 9 9 9 9 9
6 5 5 5 5 6 6 6 6 6 6 7 7 7 7 8 8 8 8 8 8 8 7 7 8 8 8 8 8 9 9 9 9 10 10 10 10 9 9 9 9 9 9 10 9 9 9 9 9
6 6 6 6 6 6 7 7 7 7 7 7 7 7 7 7 8 8 8 8 8 8 8 8 8 8 8 8 8 9 9 9 10 10 10 10 10 10 10 9 9 9 9 9 9 9 10 10 10
7 7 7 7 7 7 8 8 8 7 8 8 8 7 7 8 8 8 8 8 9 9 9 9 9 9 8 9 9 9 9 10 11 11 11 11 11 11 11 10 9 10 10 10 10 10 10 10 10
8 8 8 8 8 8 8 8 8 8 8 8 8 8 8 8 8 8 8 9 9 9 10 10 10 9 9 9 10 10 10 11 11 11 11 11 11 11 11 10 10 9 9 10 10 10 9 10 10
9 9 9 9 9 9 9 9 9 8 8 8 8 8 9 9 9 9 9 9 9 9 10 10 10 10 10 10 10 11 11 11 11 11 11 11 11 11 11 10 11 10 10 9 9 9 9 9 10
10 10 10 9 9 9 9 10 9 9 9 9 9 9 9 10 10 10 9 9 9 9 9 10 11 11 11 11 11 11 12 12 11 11 11 12 11 11 11 11 11 10 10 9 10 10 10 10 10
10 10 10 10 10 10 10 10 9 10 10 10 10 10 10 11 11 10 10 10 10 10 10 10 10 11 11 11 11 12 12 12 11 11 11 11 11 11 11 12 12 12 11 10 11 11 11 11 11
10 11 11 11 10 10 10 10 10 10 11 11 11 10 10 11 11 11 11 11 11 11 11 11 11 11 11 11 12 12 12 12 12 12 11 11 12 12 12 12 12 12 12 12 12 12 12 12 12
10 11 11 11 11 11 12 12 11 12 12 12 11 11 11 11 11 12 11 11 12 12 12 12 12 12 12 12 12 12 12 12 12 12 12 12 12 12 12 12 12 12 12 12 12 13 13 13 13
11 11 12 11 12 12 13 12 11 12 12 12 12 12 12 12 12 12 12 12 12 12 12 12 12 12 12 13 13 12 12 12 11 12 12 12 12 12 12 12 11 11 11 12 12 13 13 13 13
11 11 12 12 12 13 13 13 12 12 13 13 13 13 13 12 13 13 12 12 12 12 13 13 12 13 13 13 12 12 12 12 12 12 12 12 12 12 12 12 12 12 12 12 13 14 14 14 14
11 11 12 12 12 13 14 13 13 13 13 13 13 13 13 13 14 13 13 13 13 13 13 13 13 13 13 13 12 12 12 12 12 12 12 12 12 11 11 12 12 12 13 13 13 14 14 14 14
12 13 13 13 13 13 14 14 14 14 14 14 14 14 14 14 14 14 14 14 14 14 13 13 13 13 13 12 12 12 12 12 12 12 12 12 12 12 12 12 12 12 13 13 13 14 14 14 14
13 13 14 14 14 14 14 14 14 14 15 15 15 15 15 15 15 15 15 15 15 14 14 14 14 14 13 13 13 13 13 13 13 13 13 13 13 13 12 12 12 13 13 14 13 14 14 14 15
14 14 14 14 13 13 14 14 15 14 15 15 15 15 16 16 16 15 15 15 15 15 15 14 14 14 14 14 14 14 14 14 13 14 14 14 13 13 13 13 13 13 14 14 14 14 15 15 16
13 13 13 13 13 13 14 15 15 14 15 15 15 16 16 16 16 16 16 16 15 15 15 14 14 14 15 15 15 15 15 14 14 14 14 14 14 14 14 14 14 14 14 15 15 15 15 15 15
13 13 13 14 14 14 14 16 15 15 15 15 16 17 17 17 17 17 17 16 16 15 15 15 15 16 16 16 16 16 16 15 15 14 14 14 14 14 15 14 14 15 16 16 15 15 15 15 16
13 13 13 14 15 16 14 15 16 17 17 17 17 17 17 17 17 17 17 16 16 16 16 16 16 17 17 17 17 16 16 16 16 16 15 14 14 15 15 15 15 16 16 16 16 16 17 17 17
15 15 14 14 15 15 14 16 17 18 18 18 18 17 17 17 17 17 17 17 16 16 17 17 17 17 17 17 17 17 17 16 17 17 16 15 15 15 15 16 16 16 17 17 16 17 17 18 18
16 15 14 13 14 15 14 16 17 17 17 17 18 17 18 18 18 18 18 17 17 17 17 17 17 17 18 18 18 18 18 18 17 18 18 17 16 16 16 17 17 17 18 18 17 17 18 19 19
16 16 15 14 14 15 16 17 17 17 18 17 17 17 18 18 18 18 18 18 18 17 17 18 17 18 18 18 19 19 19 19 19 19 19 19 19 18 17 18 18 18 19 19 19 19 19 19 19
17 16 15 15 15 15 16 17 17 17 17 18 19 19 18 18 18 18 19 18 18 18 18 18 19 19 19 19 19 20 19 19 20 20 20 20 20 19 19 19 19 20 20 20 20 20 20 20 21
16 16 16 16 15 14 15 16 17 18 18 19 19 20 20 19 19 19 19 19 19 19 19 19 20 20 21 20 20 21 21 21 21 21 22 21 21 21 21 21 20 20 20 20 21 21 21 22 22
17 15 16 16 16 16 16 17 18 19 19 20 20 21 21 20 20 20 20 20 21 21 20 20 21 21 22 22 22 22 22 22 22 22 22 22 22 22 22 22 22 22 22 22 22 22 23 23 23
Wind_Direction
165 150 141 144 165 165 159 307 332 298 286 277 270 274 277 281 276 272 270 266 264 263 265 268 274 276 284 293 296 295 296 297 300 303 305 304 303 295 289 283 282 285 285 283 283 285 286 284 279
184 185 174 169 171 169 241 307 298 282 280 276 273 276 284 285 280 272 269 269 268 266 268 269 273 276 281 286 291 292 292 294 297 300 303 302 300 294 289 286 283 283 286 287 285 285 284 286 286
198 197 190 192 186 208 252 287 291 283 280 276 279 281 284 285 284 281 279 277 276 272 267 267 270 274 281 286 289 291 292 291 293 294 298 299 298 295 293 289 288 288 287 286 284 285 286 287 287
206 204 202 212 224 231 252 274 283 276 274 277 278 279 285 288 289 287 283 282 284 282 275 270 271 278 286 291 291 290 291 292 294 295 296 297 298 296 295 290 287 287 285 283 280 281 284 286 285
211 212 220 223 243 256 264 274 277 278 281 280 277 277 281 288 293 292 286 286 284 282 281 281 282 285 290 293 293 293 293 291 290 292 293 293 294 296 295 291 286 285 281 279 278 278 280 282 281
216 223 229 236 256 262 268 272 274 277 282 283 279 277 278 285 289 290 289 286 283 279 280 281 283 288 292 292 290 292 294 297 295 292 293 291 290 293 293 289 286 285 283 281 279 277 277 280 280
223 230 238 246 262 262 264 271 274 275 281 283 280 283 283 284 287 287 286 285 282 281 282 281 283 287 290 290 288 291 293 296 297 292 289 290 290 291 292 290 285 283 282 281 279 277 276 279 279
231 240 249 256 261 264 266 270 273 275 279 281 281 283 286 288 287 286 286 285 284 281 281 281 283 287 288 288 288 291 293 294 295 293 289 287 288 290 291 294 292 287 284 282 282 282 280 280 279
239 249 251 257 262 267 268 270 272 274 276 279 281 283 286 290 289 286 287 287 286 283 282 280 281 284 286 286 288 290 291 292 292 292 290 289 290 292 294 295 296 290 287 285 283 285 287 283 281
241 250 257 261 264 266 267 266 270 273 277 280 282 284 285 291 291 287 287 289 287 285 284 281 280 283 285 286 288 288 288 290 290 291 290 289 289 291 292 294 296 294 290 287 286 287 288 287 286
244 249 257 261 264 265 267 265 270 274 277 281 282 286 288 291 293 291 289 289 287 287 287 286 284 286 287 287 288 286 286 287 289 290 289 287 286 287 289 290 292 290 288 287 287 288 289 289 289
250 252 257 262 263 264 266 268 270 274 278 280 281 283 290 292 292 291 289 288 288 289 289 289 286 288 289 289 289 288 286 285 286 288 288 287 285 285 286 286 287 287 285 283 283 285 287 290 292
252 254 256 261 264 267 268 268 273 275 277 280 281 283 288 291 293 291 289 287 287 287 288 291 291 290 290 291 290 288 289 288 288 289 288 288 286 285 284 286 286 283 284 286 285 285 286 290 291
253 254 257 261 263 265 266 267 270 272 276 280 283 285 290 292 294 293 289 286 288 288 287 290 291 292 292 292 293 289 288 292 290 288 288 287 287 288 291 290 290 286 284 286 285 286 287 288 288
256 258 260 263 264 265 267 267 269 274 275 278 282 286 291 294 295 294 291 287 287 288 288 290 291 291 293 295 295 294 290 293 292 289 287 286 287 288 289 290 291 290 287 288 287 287 286 285 285
262 263 263 264 266 267 268 270 272 273 274 277 280 284 288 292 293 293 292 290 291 291 291 291 291 290 292 293 292 294 293 294 296 292 289 289 286 287 287 288 290 290 290 288 287 287 286 285 285
263 267 267 267 268 270 269 270 272 273 276 278 280 283 286 288 288 289 291 294 294 291 289 288 290 290 291 293 293 294 295 295 296 296 293 293 294 291 290 289 292 293 292 291 289 285 284 284 285
266 270 271 273 273 272 271 270 272 275 277 280 282 283 283 284 284 286 289 287 289 290 290 290 289 290 290 293 293 292 293 294 294 294 295 294 294 294 291 289 292 293 293 294 293 289 286 286 286
264 264 267 271 274 273 273 274 274 276 280 281 281 281 281 281 283 284 284 284 285 288 289 289 288 288 288 288 288 288 290 291 292 292 293 295 293 293 291 288 290 290 293 294 295 290 288 288 288
263 264 270 272 272 273 274 275 273 275 279 280 279 279 279 279 280 281 283 282 282 286 287 287 287 286 285 286 287 287 288 289 289 289 291 291 292 293 293 290 290 290 293 295 295 291 289 289 290
263 263 267 270 270 272 275 274 275 275 277 278 277 278 277 276 278 280 280 281 282 283 286 286 285 282 285 286 288 289 290 288 286 288 290 291 290 291 293 292 291 292 292 293 294 292 291 290 291
264 265 265 268 270 269 273 277 279 278 277 278 280 278 276 279 280 279 278 280 282 283 281 281 283 283 284 286 288 288 288 289 288 288 288 289 291 293 292 293 292 293 294 293 292 291 292 292 290
265 266 264 264 268 267 268 274 280 279 278 278 279 280 280 281 281 280 278 278 280 280 279 279 280 281 284 284 285 286 286 286 286 285 285 288 291 292 291 291 290 291 292 292 292 291 291 292 291
260 264 266 266 267 267 270 274 278 280 281 282 282 281 280 278 278 279 278 278 277 278 277 279 280 282 283 284 285 285 284 284 283 284 283 284 288 290 289 290 290 290 291 291 290 290 290 291 292
258 262 265 267 269 275 276 274 277 279 281 280 280 280 278 277 277 276 276 276 277 277 277 277 279 280 281 284 285 285 283 284 283 283 283 284 287 288 290 290 290 291 291 291 291 292 291 291 294
260 262 263 266 272 275 270 269 274 278 277 278 280 281 279 277 276 275 276 277 278 278 278 277 278 279 281 284 285 284 282 282 281 281 281 283 286 287 288 289 289 291 291 291 290 291 292 293 295
258 259 261 260 265 267 268 272 272 272 272 275 278 280 281 279 277 277 275 276 278 278 277 276 276 277 279 282 283 284 283 280 280 282 281 283 284 286 288 288 288 289 291 291 290 291 293 294 295
258 259 257 258 261 265 270 272 274 273 274 276 276 279 280 279 279 276 276 275 275 276 276 276 276 278 280 282 283 284 283 281 280 282 282 283 282 284 286 288 288 288 289 290 288 289 291 293 294
260 257 258 259 261 263 268 271 273 273 274 273 274 276 278 278 277 275 276 274 273 274 276 276 277 277 278 280 282 283 283 282 280 280 280 281 282 282 284 286 288 289 288 288 288 290 290 290 292
260 262 261 264 264 262 265 271 272 272 273 273 273 275 277 277 277 275 275 276 274 274 274 275 276 277 277 279 281 284 285 283 280 281 282 281 279 281 284 285 287 289 289 288 288 289 290 289 290
Height
5871 5871 5872 5873 5874 5874 5873 5874 5873 5873 5874 5874 5874 5874 5874 5875 5876 5878 5876 5875 5875 5875 5875 5875 5875 5875 5875 5875 5874 5874 5874 5873 5873 5872 5872 5871 5871 5870 5870 5870 5870 5869 5869 5869 5869 5869 5869 5869 5869
5871 5872 5873 5873 5873 5873 5874 5873 5874 5874 5874 5874 5874 5874 5874 5874 5875 5875 5875 5875 5875 5875 5875 5875 5875 5875 5874 5874 5874 5873 5873 5873 5872 5872 5871 5871 5870 5870 5870 5869 5869 5869 5869 5868 5868 5868 5868 5868 5868
5871 5871 5873 5873 5873 5873 5874 5874 5874 5874 5874 5874 5874 5874 5875 5875 5875 5874 5874 5874 5874 5874 5874 5874 5874 5874 5874 5873 5873 5873 5872 5872 5871 5871 5870 5870 5870 5869 5869 5869 5868 5868 5868 5868 5868 5867 5867 5867 5867
5871 5872 5873 5873 5873 5873 5873 5873 5873 5874 5874 5874 5874 5874 5874 5874 5874 5874 5874 5874 5874 5873 5873 5873 5873 5873 5873 5872 5872 5871 5871 5871 5870 5870 5869 5869 5869 5868 5868 5868 5867 5867 5867 5867 5867 5866 5866 5866 5866
5870 5871 5872 5872 5872 5873 5873 5873 5873 5873 5873 5873 5874 5874 5874 5873 5873 5873 5873 5873 5873 5873 5872 5872 5872 5872 5872 5871 5871 5870 5870 5870 5869 5869 5868 5868 5868 5867 5867 5867 5866 5866 5866 5866 5865 5865 5865 5865 5864
5870 5871 5872 5871 5872 5872 5872 5872 5873 5873 5873 5873 5873 5873 5873 5873 5873 5872 5872 5872 5872 5872 5872 5871 5871 5871 5871 5870 5870 5869 5869 5868 5868 5867 5867 5866 5866 5866 5865 5865 5865 5864 5864 5864 5864 5864 5863 5863 5863
5870 5870 5870 5871 5871 5872 5872 5872 5872 5872 5872 5872 5872 5872 5872 5872 5871 5871 5871 5871 5871 5871 5871 5871 5870 5870 5869 5869 5869 5868 5868 5867 5867 5866 5866 5865 5865 5864 5864 5863 5863 5863 5862 5862 5862 5862 5862 5861 5861
5869 5870 5870 5870 5870 5871 5871 5871 5871 5871 5871 5871 5871 5871 5871 5871 5870 5870 5870 5870 5870 5869 5869 5869 5869 5869 5868 5868 5867 5867 5866 5866 5865 5865 5864 5863 5863 5863 5862 5862 5861 5861 5860 5860 5860 5860 5860 5860 5859
5868 5870 5869 5869 5870 5870 5870 5870 5870 5870 5870 5870 5870 5870 5870 5870 5869 5869 5869 5868 5868 5868 5868 5868 5867 5867 5867 5866 5866 5865 5865 5864 5864 5863 5862 5862 5861 5861 5861 5860 5859 5859 5859 5858 5858 5858 5858 5858 5857
5867 5868 5868 5868 5869 5869 5869 5869 5869 5869 5869 5869 5869 5869 5869 5868 5868 5867 5867 5867 5867 5866 5866 5866 5866 5866 5865 5865 5864 5864 5863 5862 5862 5861 5860 5860 5860 5859 5859 5859 5858 5857 5857 5856 5856 5856 5856 5856 5855
5865 5866 5867 5867 5867 5868 5868 5868 5868 5868 5868 5868 5868 5868 5867 5867 5867 5866 5866 5865 5865 5865 5865 5864 5864 5864 5863 5863 5862 5862 5861 5860 5860 5859 5859 5858 5858 5857 5857 5857 5856 5856 5855 5855 5854 5854 5854 5854 5853
5864 5865 5865 5865 5866 5866 5867 5867 5867 5867 5867 5867 5866 5866 5866 5866 5865 5865 5864 5864 5864 5863 5863 5863 5862 5862 5861 5861 5860 5860 5859 5858 5857 5857 5856 5856 5855 5855 5855 5855 5854 5854 5853 5853 5853 5852 5852 5852 5851
5862 5863 5863 5864 5864 5864 5865 5865 5865 5865 5865 5865 5865 5865 5865 5864 5864 5863 5863 5862 5862 5862 5861 5861 5860 5860 5859 5859 5858 5858 5857 5856 5855 5855 5854 5854 5853 5853 5853 5853 5852 5852 5851 5851 5851 5850 5850 5850 5849
5860 5861 5861 5862 5862 5863 5863 5863 5864 5863 5863 5864 5863 5863 5863 5862 5862 5862 5861 5861 5860 5860 5860 5859 5859 5858 5858 5857 5856 5856 5855 5854 5853 5853 5852 5851 5851 5851 5850 5850 5850 5849 5849 5849 5848 5848 5848 5847 5847
5858 5859 5860 5860 5860 5861 5861 5861 5861 5861 5861 5862 5862 5861 5861 5861 5860 5860 5859 5859 5858 5858 5858 5857 5857 5856 5856 5855 5854 5854 5853 5852 5852 5851 5850 5849 5849 5848 5848 5848 5847 5847 5847 5846 5846 5845 5845 5845 5844
5856 5857 5857 5858 5858 5858 5860 5859 5859 5859 5859 5859 5860 5859 5859 5859 5858 5858 5857 5856 5856 5856 5856 5855 5855 5854 5854 5853 5852 5851 5851 5850 5849 5849 5848 5847 5847 5846 5846 5846 5845 5845 5844 5844 5843 5843 5842 5842 5841
5854 5854 5855 5855 5855 5855 5856 5857 5857 5857 5857 5857 5857 5857 5857 5857 5856 5856 5855 5854 5854 5854 5853 5853 5853 5852 5851 5851 5850 5849 5848 5848 5847 5846 5845 5845 5844 5844 5843 5843 5843 5842 5842 5841 5840 5840 5839 5839 5838
5851 5851 5852 5852 5852 5853 5853 5853 5854 5854 5854 5854 5854 5854 5854 5854 5854 5853 5853 5852 5851 5851 5851 5851 5850 5850 5849 5849 5848 5847 5846 5845 5845 5844 5843 5843 5842 5841 5841 5841 5840 5840 5839 5838 5837 5837 5836 5836 5835
5848 5849 5849 5849 5849 5850 5850 5850 5851 5851 5851 5851 5851 5851 5851 5851 5851 5850 5850 5849 5849 5849 5848 5848 5847 5847 5847 5846 5845 5845 5844 5843 5842 5842 5841 5840 5840 5839 5839 5838 5838 5837 5836 5835 5834 5834 5833 5833 5832
5845 5846 5846 5846 5846 5847 5847 5847 5847 5848 5848 5848 5848 5848 5848 5848 5847 5847 5847 5847 5846 5846 5846 5845 5844 5844 5844 5843 5843 5842 5841 5841 5840 5839 5839 5838 5837 5837 5836 5835 5835 5834 5833 5832 5832 5831 5830 5830 5829
5842 5843 5843 5843 5843 5843 5844 5844 5844 5844 5844 5844 5844 5844 5844 5844 5844 5844 5844 5843 5843 5843 5842 5842 5841 5841 5841 5840 5840 5839 5838 5838 5837 5836 5836 5835 5834 5834 5833 5832 5832 5831 5830 5829 5829 5828 5827 5826 5825
5838 5839 5839 5840 5840 5840 5841 5841 5841 5841 5841 5841 5840 5840 5840 5840 5840 5840 5840 5840 5840 5839 5839 5839 5838 5838 5838 5837 5837 5836 5835 5835 5834 5833 5833 5832 5831 5830 5830 5829 5828 5828 5827 5826 5825 5824 5824 5823 5822
5835 5836 5836 5836 5837 5837 5838 5837 5838 5837 5837 5838 5837 5837 5837 5836 5836 5836 5836 5836 5836 5835 5835 5835 5835 5835 5834 5834 5833 5832 5831 5831 5830 5830 5829 5829 5828 5827 5826 5826 5825 5824 5823 5822 5821 5821 5820 5819 5818
5832 5832 5832 5833 5833 5834 5835 5834 5834 5833 5833 5833 5833 5833 5833 5832 5832 5832 5832 5832 5831 5831 5831 5831 5831 5831 5830 5830 5829 5828 5827 5826 5826 5826 5826 5825 5824 5823 5823 5822 5821 5820 5819 5818 5818 5817 5816 5815 5814
5828 5829 5829 5829 5829 5830 5831 5830 5831 5829 5829 5829 5829 5829 5828 5828 5828 5828 5827 5827 5827 5827 5827 5827 5827 5827 5826 5826 5825 5824 5823 5822 5822 5822 5822 5821 5820 5820 5819 5818 5817 5816 5815 5814 5813 5813 5812 5811 5810
5824 5825 5826 5826 5827 5827 5827 5826 5827 5826 5825 5825 5825 5824 5824 5824 5823 5823 5823 5823 5822 5822 5822 5822 5822 5822 5822 5821 5821 5820 5819 5818 5818 5817 5817 5817 5816 5815 5815 5814 5813 5812 5811 5810 5809 5808 5807 5806 5805
5819 5820 5821 5821 5822 5822 5823 5823 5823 5822 5821 5821 5821 5820 5820 5819 5819 5819 5818 5818 5818 5818 5818 5818 5817 5817 5817 5816 5816 5815 5814 5814 5813 5813 5812 5812 5812 5811 5810 5809 5808 5807 5806 5805 5804 5803 5802 5801 5800
5815 5816 5817 5816 5817 5817 5819 5819 5818 5817 5817 5817 5816 5815 5815 5814 5814 5814 5814 5813 5813 5813 5813 5813 5812 5812 5812 5811 5811 5810 5809 5809 5808 5808 5807 5807 5807 5806 5805 5804 5803 5802 5801 5800 5799 5798 5797 5796 5795
5810 5811 5811 5811 5812 5813 5813 5816 5813 5812 5812 5812 5811 5810 5810 5809 5809 5809 5808 5808 5808 5808 5807 5807 5807 5807 5806 5806 5805 5804 5804 5803 5803 5803 5802 5802 5801 5800 5800 5799 5798 5797 5796 5795 5794 5793 5792 5791 5789
5805 5806 5806 5807 5808 5808 5808 5812 5808 5807 5807 5806 5806 5805 5804 5804 5803 5803 5803 5802 5802 5802 5802 5802 5801 5801 5801 5800 5800 5799 5799 5798 5797 5797 5796 5796 5795 5795 5794 5793 5792 5791 5790 5789 5788 5787 5786 5784 5783